SCP
0 0 0 0 0 0 0 0 0 0 0 0 0 0 0 0 0 0 0 0 0 0 0 0 0 0 0 0 0 0 0 0 0 0 0 0 0 0 0 0 0 0 0
0 0 0 0 0 0 0 0 0 0 0 0 0 0 0 0 0 0 0 0 0 0 0 0 0 0 0 0 0 0 0 0 0 0 0 0 0 0 0 0 0 0 0
0 0 0 0 0 0 0 0 0 0 0 0 0 0 0 0 0 0 0 0 0 0 0 0 0 0 0 0 0 0 0 0 0 0 0 0 0 0 0 0 0 0 0
0 0 0 0 0 0 0 0 0 0 0 0 0 0 0 0 0 0 0 0 0 0 0 0 0 0 0 0 0 0 0 0 0 0 0 0 0 0 0 0 0 0 0
0 0 0 0 0 0 0 0 0 0 0 0 0 0 0 0 0 0 0 0 0 0 0 0 0 0 0 0 0 0 0 0 0 0 0 0 0 0 0 0 0 0 0
0 0 0 0 0 0 0 0 0 0 0 0 0 0 0 0 0 0 0 0 0 0 0 0 0 0 0 0 0 0 0 0 0 0 0 0 0 0 0 0 0 0 0
0 0 0 0 0 0 0 0 0 0 0 0 0 0 0 0 0 0 0 0 0 0 0 0 0 0 0 0 0 0 0 0 0 0 0 0 0 0 0 0 0 0 0
0 0 0 0 0 0 0 0 0 0 0 0 0 0 0 0 0 0 0 0 0 0 0 0 0 0 0 0 0 0 0 0 0 0 0 0 0 0 0 0 0 0 0
0 0 0 0 0 0 0 0 0 0 0 0 0 0 0 0 0 0 0 0 0 0 0 0 0 0 0 0 0 0 0 0 0 0 0 0 0 0 0 0 0 0 0
0 0 0 0 0 0 0 0 0 0 0 0 0 0 0 0 0 0 0 0 0 0 0 0 0 0 0 0 0 0 0 0 0 0 0 0 0 0 0 0 0 0 0
0 0 0 0 0 0 0 0 0 0 0 0 0 0 0 0 0 0 0 0 0 0 0 0 0 0 0 0 0 0 0 0 0 0 0 0 0 0 0 0 0 0 0
0 0 0 0 0 0 0 0 0 0 0 0 0 0 0 0 0 0 0 0 0 0 0 0 0 0 0 0 0 0 0 0 0 0 0 0 0 0 0 0 0 0 0
0 0 0 0 0 0 0 0 0 0 0 0 0 0 0 0 0 0 0 0 0 0 0 0 0 0 0 0 0 0 0 0 0 0 0 0 0 0 0 0 0 0 0
0 0 0 0 0 0 0 0 0 0 0 0 0 0 0 0 0 0 0 0 0 0 0 0 0 0 0 0 0 0 0 0 0 0 0 0 0 0 0 0 0 0 0
0 0 0 0 0 0 0 0 0 0 0 0 0 0 0 0 0 0 0 0 0 0 0 0 0 0 0 0 0 0 0 0 0 0 0 0 0 0 0 0 0 0 0
0 0 0 0 0 0 0 0 0 0 0 0 0 0 0 0 0 0 0 0 0 0 0 0 0 0 0 0 0 0 0 0 0 0 0 0 0 0 0 0 0 0 0
0 0 0 0 0 0 0 0 0 0 0 0 0 0 0 0 0 0 0 0 0 0 0 0 0 0 0 0 0 0 0 0 0 0 0 0 0 0 0 0 0 0 0
0 0 0 0 0 0 0 0 0 0 0 0 0 0 0 0 0 0 0 0 0 0 0 0 0 0 0 0 0 0 0 0 0 0 0 0 0 0 0 0 0 0 0
0 0 0 0 0 0 0 0 0 0 0 0 0 0 0 0 0 0 0 0 0 0 0 0 0 0 0 0 0 0 0 0 0 0 0 0 0 0 0 0 0 0 0
0 0 0 0 0 0 0 0 0 0 0 0 0 0 0 0 0 0 0 0 0 0 0 0 0 0 0 0 0 0 0 0 0 0 0 0 0 0 0 0 0 0 0
0 0 0 0 0 0 0 0 0 0 0 0 0 0 0 0 0 0 0 0 0 0 0 0 0 0 0 0 0 0 0 0 0 0 0 0 0 0 0 0 0 0 0
0 0 0 0 0 0 0 0 0 0 0 0 0 0 0 0 0 0 0 0 0 0 0 0 0 0 0 0 0 0 0 0 0 0 0 0 0 0 0 0 0 0 0
0 0 0 0 0 0 0 0 0 0 0 0 0 0 0 0 0 0 0 0 0 0 0 0 0 0 0 0 0 0 0 0 0 0 0 0 0 0 0 0 0 0 0
0 0 0 0 0 0 0 0 0 0 0 0 0 0 0 0 0 0 0 0 0 0 0 0 0 0 0 0 0 0 0 0 0 0 0 0 0 0 0 0 0 0 0
0 0 0 0 0 0 0 0 0 0 0 0 0 0 0 0 0 0 0 0 0 0 0 0 0 0 0 0 0 0 0 0 0 0 0 0 0 0 0 0 0 0 0
0 0 0 0 0 0 0 0 0 0 0 0 0 0 0 0 0 0 0 0 0 0 0 0 0 0 0 0 0 0 0 0 0 0 0 0 0 0 0 0 0 0 0
Wind_Speed_500mb
33 33 33 31 30 29 28 24 23 20 19 19 18 18 17 17 18 19 21 16 15 15 16 15 14 14 12 11 7 8 6 5 7 8 7 8 10 10 10 10 13 17 20
39 38 38 37 33 33 31 30 28 25 23 22 21 21 21 22 21 22 22 22 18 18 16 15 16 18 15 13 11 11 9 5 4 7 6 7 9 8 9 10 13 16 18
44 41 42 42 39 38 35 34 33 31 28 26 24 25 24 26 26 27 27 28 23 16 14 14 16 17 17 16 14 13 12 7 6 7 6 8 8 8 7 8 9 12 17
48 47 47 46 42 43 42 41 38 37 34 32 28 27 26 24 26 27 28 27 24 18 16 18 18 16 19 18 17 16 18 10 11 9 10 11 11 11 8 8 9 12 14
53 53 52 50 48 48 47 45 44 42 39 35 32 27 26 28 29 34 26 24 24 22 19 20 22 21 21 21 21 17 23 18 16 13 12 14 14 12 14 13 12 12 14
59 60 58 57 55 55 53 51 50 46 44 38 34 32 33 36 35 34 34 29 29 25 25 26 25 24 23 25 24 19 22 30 18 19 18 17 15 14 17 18 15 15 14
67 67 66 65 65 65 60 57 55 54 52 44 38 37 45 39 36 37 38 34 37 30 32 29 30 30 27 27 26 24 22 30 24 21 21 19 18 18 19 19 19 20 19
76 74 74 75 73 72 69 66 65 63 60 52 54 47 41 41 40 33 36 43 41 36 40 40 37 30 31 29 28 28 29 27 32 25 26 24 22 21 20 24 24 24 22
85 84 83 82 82 81 79 75 74 73 69 63 60 51 22 31 17 31 36 42 41 44 46 46 40 39 38 35 37 37 36 39 45 36 32 32 29 24 28 27 29 27 27
94 92 91 90 89 89 88 85 82 81 76 74 66 69 60 31 24 18 36 37 41 48 50 47 48 45 44 47 48 49 45 43 45 45 40 39 35 32 30 29 33 31 31
94 94 96 98 99 98 97 95 92 91 89 84 82 77 73 65 50 38 33 40 45 52 55 56 54 52 46 44 46 50 48 49 47 50 48 47 45 37 35 35 36 33 32
97 97 96 100 104 107 105 104 102 99 97 93 90 88 87 81 76 75 66 61 53 55 54 54 58 57 49 47 48 53 53 50 54 49 52 49 53 44 39 40 38 34 32
100 104 103 103 107 109 112 112 112 110 107 105 100 99 96 93 84 75 81 79 75 73 68 62 56 55 54 53 49 51 46 47 47 53 48 55 57 50 42 44 47 46 43
97 99 102 105 108 108 110 115 119 118 116 114 110 106 104 100 94 86 82 76 76 75 75 85 75 65 55 52 49 46 47 41 43 48 56 54 58 54 43 39 43 48 49
98 92 94 101 104 106 107 109 118 122 122 123 118 113 111 108 102 97 91 87 82 63 69 78 73 68 60 58 51 48 44 41 46 46 46 55 52 51 45 43 43 45 48
94 94 98 100 106 108 108 108 113 116 121 123 122 117 116 113 106 101 96 92 92 90 68 62 62 62 57 51 47 49 48 45 48 47 49 49 49 49 48 44 39 40 42
92 97 97 100 105 110 108 111 111 112 111 111 111 113 116 108 108 104 96 94 93 94 85 73 77 71 63 54 50 48 47 47 47 50 53 50 50 50 44 42 41 41 48
76 88 94 97 101 108 111 112 110 109 112 113 113 111 117 111 108 109 104 96 93 90 86 78 74 76 72 60 56 50 46 45 49 49 48 47 50 47 44 42 44 47 49
70 77 87 94 99 106 113 115 118 113 116 112 117 118 122 116 113 111 108 104 99 92 88 83 77 76 76 66 60 55 49 48 50 47 49 45 41 45 45 45 43 44 43
73 76 82 90 96 101 107 116 118 113 118 114 102 121 125 118 118 109 107 106 102 97 89 84 81 78 72 58 60 56 53 52 54 47 47 47 44 41 45 40 36 41 42
67 74 78 86 90 97 105 111 116 114 111 117 106 109 123 116 114 107 108 107 104 99 90 85 83 86 66 65 61 55 49 49 48 49 46 43 42 40 34 34 37 38 38
66 65 75 80 89 95 98 103 111 114 117 111 116 105 120 111 110 98 100 105 97 97 89 88 85 86 74 61 57 52 52 48 47 47 42 37 38 33 32 33 33 36 37
67 70 70 76 84 92 96 100 102 105 113 113 114 105 109 110 103 98 91 97 91 86 83 90 92 80 66 56 48 50 51 47 46 36 27 30 32 29 30 30 33 35 36
73 72 76 75 82 88 94 96 93 96 104 113 111 108 107 106 101 95 92 93 91 82 74 73 59 46 47 50 45 47 49 48 40 38 32 31 32 31 30 30 35 36 38
83 80 76 78 77 85 82 86 84 89 97 109 111 110 106 100 99 92 92 92 90 79 76 70 59 51 49 51 48 48 49 42 42 37 34 32 31 31 31 33 36 38 36
87 83 86 83 79 82 79 79 78 85 98 106 103 114 113 93 104 92 92 94 92 76 78 68 52 50 50 51 50 40 35 38 37 33 34 32 29 28 24 31 29 23 36
Wind_Direction_500mb
233 234 238 230 227 224 229 231 237 243 244 245 247 255 262 260 265 264 274 273 270 272 271 270 266 262 264 275 280 247 319 310 335 354 358 7 20 20 26 25 27 21 19
235 234 236 238 235 234 233 234 238 244 244 248 252 262 267 272 270 268 270 272 269 270 263 262 252 252 253 256 262 252 274 285 312 337 339 342 352 359 4 6 14 13 14
236 238 237 237 238 238 239 238 239 244 246 250 255 263 269 273 272 275 270 263 266 250 252 253 245 244 243 241 246 246 261 274 260 306 314 317 325 328 352 344 355 5 11
238 240 240 241 239 239 239 242 241 243 246 248 254 258 270 278 288 293 270 258 251 245 248 249 241 236 231 230 233 235 242 257 250 282 303 303 299 309 319 310 319 348 360
239 241 242 242 242 242 242 242 242 243 245 246 250 255 258 267 272 276 270 241 237 248 251 239 233 230 229 227 230 239 237 251 252 263 293 296 293 296 296 294 303 319 335
240 240 244 242 243 243 243 242 242 242 245 248 250 253 250 252 267 266 265 247 241 240 239 239 227 228 231 231 240 249 240 242 248 260 279 286 285 285 286 284 287 296 311
243 242 243 244 243 245 246 245 244 243 243 238 236 244 254 263 264 257 257 253 241 234 237 235 235 232 233 236 238 240 242 249 253 264 269 281 276 281 292 282 278 282 295
247 245 245 244 245 245 245 243 243 243 244 238 233 241 255 266 255 254 250 254 239 237 235 236 241 241 238 242 248 254 254 247 266 268 267 276 276 277 293 284 276 274 283
249 249 248 246 246 247 247 247 245 244 243 242 237 233 219 236 254 246 245 249 240 233 233 234 240 242 248 252 255 256 257 255 261 261 268 268 274 274 291 289 282 278 277
252 251 250 249 247 248 249 249 247 246 244 242 239 239 237 240 217 233 237 240 237 235 234 233 238 247 252 258 259 265 265 261 268 262 260 262 266 268 268 268 275 272 270
256 255 253 251 249 248 250 250 248 245 245 244 244 241 243 236 229 230 230 232 234 237 240 242 246 250 249 255 258 262 263 263 268 264 260 265 266 260 260 264 268 263 264
260 258 256 255 253 251 250 252 252 249 248 247 245 245 246 241 237 230 235 238 237 239 243 246 247 248 248 256 262 270 265 263 264 258 259 265 269 254 259 256 261 243 251
257 262 264 259 257 256 254 252 251 250 249 246 246 246 247 247 249 248 243 245 241 241 244 245 242 248 253 259 264 264 262 260 264 259 262 265 268 252 252 252 265 262 248
258 262 265 266 264 262 258 254 251 252 251 249 248 247 247 248 249 246 246 245 243 246 246 248 250 253 256 257 263 253 255 251 257 263 260 257 260 254 252 252 264 265 259
256 254 259 260 262 261 260 257 253 252 251 251 250 248 247 248 247 247 246 247 245 239 242 245 247 256 260 262 254 250 245 253 268 269 256 253 256 248 250 253 261 268 264
261 257 254 257 258 258 259 256 254 254 252 250 250 248 247 246 246 247 246 244 244 245 244 252 256 259 260 255 247 246 250 252 263 258 251 254 252 244 248 257 258 266 263
264 262 258 254 258 258 256 253 255 251 248 244 242 244 246 245 245 243 245 245 243 243 240 243 251 256 257 250 246 244 253 259 262 253 256 252 252 246 246 252 260 267 268
270 265 262 259 254 257 259 255 248 245 243 245 241 239 242 246 244 245 241 239 239 241 240 239 244 254 252 248 244 248 252 259 258 255 254 254 254 242 248 252 264 264 267
277 271 263 260 257 254 256 258 258 249 246 249 245 240 244 244 243 242 242 237 240 242 241 240 242 248 246 244 245 251 255 261 255 251 250 255 251 247 249 257 258 263 268
284 276 270 263 259 256 255 258 259 258 247 249 253 245 244 242 244 242 239 238 239 243 240 240 245 249 242 235 246 248 248 262 259 247 245 248 248 244 258 258 260 268 276
289 284 274 269 264 259 256 257 257 257 255 250 255 254 242 242 247 247 243 241 238 241 242 241 242 236 233 246 246 243 251 264 247 236 244 238 248 256 251 256 265 271 276
297 292 282 271 268 265 262 259 260 261 258 255 250 255 246 243 244 245 245 245 248 246 241 242 240 233 248 239 248 243 256 243 231 235 237 244 248 246 249 256 265 271 276
304 297 291 281 269 266 264 262 260 259 260 259 254 252 248 245 245 244 240 239 247 246 244 244 235 242 246 249 248 251 246 236 231 226 235 238 237 241 252 262 270 276 282
310 300 295 288 278 269 266 266 264 262 261 257 254 252 250 248 253 242 234 235 240 239 242 234 230 233 236 240 241 240 249 226 221 226 228 229 239 249 259 268 275 278 282
313 307 297 291 281 276 267 265 266 264 262 257 254 253 253 253 248 240 234 231 229 219 232 223 225 229 234 238 233 227 209 217 216 220 228 235 246 259 266 269 274 279 280
312 308 302 295 287 282 269 262 266 265 264 259 255 252 253 251 252 233 232 230 223 231 223 228 220 226 215 223 215 212 217 218 218 222 228 238 248 257 268 268 263 263 280
Wind_Speed_850mb
33 33 33 31 30 29 28 24 23 20 19 19 18 18 17 17 18 19 21 16 15 15 16 15 14 14 12 11 7 8 6 5 7 8 7 8 10 10 10 10 13 17 20
39 38 38 37 33 33 31 30 28 25 23 22 21 21 21 22 21 22 22 22 18 18 16 15 16 18 15 13 11 11 9 5 4 7 6 7 9 8 9 10 13 16 18
44 41 42 42 39 38 35 34 33 31 28 26 24 25 24 26 26 27 27 28 23 16 14 14 16 17 17 16 14 13 12 7 6 7 6 8 8 8 7 8 9 12 17
48 47 47 46 42 43 42 41 38 37 34 32 28 27 26 24 26 27 28 27 24 18 16 18 18 16 19 18 17 16 18 10 11 9 10 11 11 11 8 8 9 12 14
53 53 52 50 48 48 47 45 44 42 39 35 32 27 26 28 29 34 26 24 24 22 19 20 22 21 21 21 21 17 23 18 16 13 12 14 14 12 14 13 12 12 14
59 60 58 57 55 55 53 51 50 46 44 38 34 32 33 36 35 34 34 29 29 25 25 26 25 24 23 25 24 19 22 30 18 19 18 17 15 14 17 18 15 15 14
67 67 66 65 65 65 60 57 55 54 52 44 38 37 45 39 36 37 38 34 37 30 32 29 30 30 27 27 26 24 22 30 24 21 21 19 18 18 19 19 19 20 19
76 74 74 75 73 72 69 66 65 63 60 52 54 47 41 41 40 33 36 43 41 36 40 40 37 30 31 29 28 28 29 27 32 25 26 24 22 21 20 24 24 24 22
85 84 83 82 82 81 79 75 74 73 69 63 60 51 22 31 17 31 36 42 41 44 46 46 40 39 38 35 37 37 36 39 45 36 32 32 29 24 28 27 29 27 27
94 92 91 90 89 89 88 85 82 81 76 74 66 69 60 31 24 18 36 37 41 48 50 47 48 45 44 47 48 49 45 43 45 45 40 39 35 32 30 29 33 31 31
94 94 96 98 99 98 97 95 92 91 89 84 82 77 73 65 50 38 33 40 45 52 55 56 54 52 46 44 46 50 48 49 47 50 48 47 45 37 35 35 36 33 32
97 97 96 100 104 107 105 104 102 99 97 93 90 88 87 81 76 75 66 61 53 55 54 54 58 57 49 47 48 53 53 50 54 49 52 49 53 44 39 40 38 34 32
100 104 103 103 107 109 112 112 112 110 107 105 100 99 96 93 84 75 81 79 75 73 68 62 56 55 54 53 49 51 46 47 47 53 48 55 57 50 42 44 47 46 43
97 99 102 105 108 108 110 115 119 118 116 114 110 106 104 100 94 86 82 76 76 75 75 85 75 65 55 52 49 46 47 41 43 48 56 54 58 54 43 39 43 48 49
98 92 94 101 104 106 107 109 118 122 122 123 118 113 111 108 102 97 91 87 82 63 69 78 73 68 60 58 51 48 44 41 46 46 46 55 52 51 45 43 43 45 48
94 94 98 100 106 108 108 108 113 116 121 123 122 117 116 113 106 101 96 92 92 90 68 62 62 62 57 51 47 49 48 45 48 47 49 49 49 49 48 44 39 40 42
92 97 97 100 105 110 108 111 111 112 111 111 111 113 116 108 108 104 96 94 93 94 85 73 77 71 63 54 50 48 47 47 47 50 53 50 50 50 44 42 41 41 48
76 88 94 97 101 108 111 112 110 109 112 113 113 111 117 111 108 109 104 96 93 90 86 78 74 76 72 60 56 50 46 45 49 49 48 47 50 47 44 42 44 47 49
70 77 87 94 99 106 113 115 118 113 116 112 117 118 122 116 113 111 108 104 99 92 88 83 77 76 76 66 60 55 49 48 50 47 49 45 41 45 45 45 43 44 43
73 76 82 90 96 101 107 116 118 113 118 114 102 121 125 118 118 109 107 106 102 97 89 84 81 78 72 58 60 56 53 52 54 47 47 47 44 41 45 40 36 41 42
67 74 78 86 90 97 105 111 116 114 111 117 106 109 123 116 114 107 108 107 104 99 90 85 83 86 66 65 61 55 49 49 48 49 46 43 42 40 34 34 37 38 38
66 65 75 80 89 95 98 103 111 114 117 111 116 105 120 111 110 98 100 105 97 97 89 88 85 86 74 61 57 52 52 48 47 47 42 37 38 33 32 33 33 36 37
67 70 70 76 84 92 96 100 102 105 113 113 114 105 109 110 103 98 91 97 91 86 83 90 92 80 66 56 48 50 51 47 46 36 27 30 32 29 30 30 33 35 36
73 72 76 75 82 88 94 96 93 96 104 113 111 108 107 106 101 95 92 93 91 82 74 73 59 46 47 50 45 47 49 48 40 38 32 31 32 31 30 30 35 36 38
83 80 76 78 77 85 82 86 84 89 97 109 111 110 106 100 99 92 92 92 90 79 76 70 59 51 49 51 48 48 49 42 42 37 34 32 31 31 31 33 36 38 36
87 83 86 83 79 82 79 79 78 85 98 106 103 114 113 93 104 92 92 94 92 76 78 68 52 50 50 51 50 40 35 38 37 33 34 32 29 28 24 31 29 23 36
Wind_Direction_850mb
233 234 238 230 227 224 229 231 237 243 244 245 247 255 262 260 265 264 274 273 270 272 271 270 266 262 264 275 280 247 319 310 335 354 358 7 20 20 26 25 27 21 19
235 234 236 238 235 234 233 234 238 244 244 248 252 262 267 272 270 268 270 272 269 270 263 262 252 252 253 256 262 252 274 285 312 337 339 342 352 359 4 6 14 13 14
236 238 237 237 238 238 239 238 239 244 246 250 255 263 269 273 272 275 270 263 266 250 252 253 245 244 243 241 246 246 261 274 260 306 314 317 325 328 352 344 355 5 11
238 240 240 241 239 239 239 242 241 243 246 248 254 258 270 278 288 293 270 258 251 245 248 249 241 236 231 230 233 235 242 257 250 282 303 303 299 309 319 310 319 348 360
239 241 242 242 242 242 242 242 242 243 245 246 250 255 258 267 272 276 270 241 237 248 251 239 233 230 229 227 230 239 237 251 252 263 293 296 293 296 296 294 303 319 335
240 240 244 242 243 243 243 242 242 242 245 248 250 253 250 252 267 266 265 247 241 240 239 239 227 228 231 231 240 249 240 242 248 260 279 286 285 285 286 284 287 296 311
243 242 243 244 243 245 246 245 244 243 243 238 236 244 254 263 264 257 257 253 241 234 237 235 235 232 233 236 238 240 242 249 253 264 269 281 276 281 292 282 278 282 295
247 245 245 244 245 245 245 243 243 243 244 238 233 241 255 266 255 254 250 254 239 237 235 236 241 241 238 242 248 254 254 247 266 268 267 276 276 277 293 284 276 274 283
249 249 248 246 246 247 247 247 245 244 243 242 237 233 219 236 254 246 245 249 240 233 233 234 240 242 248 252 255 256 257 255 261 261 268 268 274 274 291 289 282 278 277
252 251 250 249 247 248 249 249 247 246 244 242 239 239 237 240 217 233 237 240 237 235 234 233 238 247 252 258 259 265 265 261 268 262 260 262 266 268 268 268 275 272 270
256 255 253 251 249 248 250 250 248 245 245 244 244 241 243 236 229 230 230 232 234 237 240 242 246 250 249 255 258 262 263 263 268 264 260 265 266 260 260 264 268 263 264
260 258 256 255 253 251 250 252 252 249 248 247 245 245 246 241 237 230 235 238 237 239 243 246 247 248 248 256 262 270 265 263 264 258 259 265 269 254 259 256 261 243 251
257 262 264 259 257 256 254 252 251 250 249 246 246 246 247 247 249 248 243 245 241 241 244 245 242 248 253 259 264 264 262 260 264 259 262 265 268 252 252 252 265 262 248
258 262 265 266 264 262 258 254 251 252 251 249 248 247 247 248 249 246 246 245 243 246 246 248 250 253 256 257 263 253 255 251 257 263 260 257 260 254 252 252 264 265 259
256 254 259 260 262 261 260 257 253 252 251 251 250 248 247 248 247 247 246 247 245 239 242 245 247 256 260 262 254 250 245 253 268 269 256 253 256 248 250 253 261 268 264
261 257 254 257 258 258 259 256 254 254 252 250 250 248 247 246 246 247 246 244 244 245 244 252 256 259 260 255 247 246 250 252 263 258 251 254 252 244 248 257 258 266 263
264 262 258 254 258 258 256 253 255 251 248 244 242 244 246 245 245 243 245 245 243 243 240 243 251 256 257 250 246 244 253 259 262 253 256 252 252 246 246 252 260 267 268
270 265 262 259 254 257 259 255 248 245 243 245 241 239 242 246 244 245 241 239 239 241 240 239 244 254 252 248 244 248 252 259 258 255 254 254 254 242 248 252 264 264 267
277 271 263 260 257 254 256 258 258 249 246 249 245 240 244 244 243 242 242 237 240 242 241 240 242 248 246 244 245 251 255 261 255 251 250 255 251 247 249 257 258 263 268
284 276 270 263 259 256 255 258 259 258 247 249 253 245 244 242 244 242 239 238 239 243 240 240 245 249 242 235 246 248 248 262 259 247 245 248 248 244 258 258 260 268 276
289 284 274 269 264 259 256 257 257 257 255 250 255 254 242 242 247 247 243 241 238 241 242 241 242 236 233 246 246 243 251 264 247 236 244 238 248 256 251 256 265 271 276
297 292 282 271 268 265 262 259 260 261 258 255 250 255 246 243 244 245 245 245 248 246 241 242 240 233 248 239 248 243 256 243 231 235 237 244 248 246 249 256 265 271 276
304 297 291 281 269 266 264 262 260 259 260 259 254 252 248 245 245 244 240 239 247 246 244 244 235 242 246 249 248 251 246 236 231 226 235 238 237 241 252 262 270 276 282
310 300 295 288 278 269 266 266 264 262 261 257 254 252 250 248 253 242 234 235 240 239 242 234 230 233 236 240 241 240 249 226 221 226 228 229 239 249 259 268 275 278 282
313 307 297 291 281 276 267 265 266 264 262 257 254 253 253 253 248 240 234 231 229 219 232 223 225 229 234 238 233 227 209 217 216 220 228 235 246 259 266 269 274 279 280
312 308 302 295 287 282 269 262 266 265 264 259 255 252 253 251 252 233 232 230 223 231 223 228 220 226 215 223 215 212 217 218 218 222 228 238 248 257 268 268 263 263 280